Regional Weather Roundup
Issued by NWS

Home | Current Version | Previous Version | Text Only | Print | Product List | Glossary On
Versions: 1 2 3 4 5 6 7 8 9 10 11 12 13 14 15 16 17 18 19 20 21 22 23 24 25 26 27 28 29 30 31 32 33 34 35 36 37 38 39 40 41 42 43 44 45 46 47 48 49 50
000
ASCA42 TJSJ 191310
RWRPR
PUERTO RICO/U.S. VIRGIN ISLANDS HOURLY WEATHER ROUNDUP
NATIONAL WEATHER SERVICE SAN JUAN PR
900 AM AST MON FEB 19 2018

PRZ001>002-007>008-010-191400-
PUERTO RICO

CITY           SKY/WX    TMP DP  RH WIND       PRES   REMARKS
SAN JUAN LMM   MOSUNNY   79  68  69 NE18      30.18R
AGUADILLA      MOSUNNY  N/A N/A N/A E10       30.18S
$$

VIZ001>002-191400-
U.S. VIRGIN ISLANDS

CITY           SKY/WX    TMP DP  RH WIND       PRES   REMARKS
CHARLOTTE AMA  PTSUNNY   75  72  88 E15G24    30.16R
CHRISTIANSTED  MOSUNNY   77  72  83 E15       30.15R
$$

HOURLY WEATHER ROUNDUP FOR THE NEWS MEDIA

CITY           SKY/WX    TMP DP  RH WIND       PRES   REMARKS
ORLANDO        FAIR      67  66  97 E5        30.31R
NEW YORK       PTSUNNY   37  36  96 SE5       30.53S WCI  33
NEWARK         PTSUNNY   37  32  82 S5        30.52S WCI  33
CHICAGO        LGT RAIN  39  37  92 S7        29.87F WCI  34
HARTFORD       FAIR      31  30  96 CALM      30.56F
BOSTON         FAIR      31  26  82 S6        30.56S WCI  25
DALLAS         CLOUDY    69  64  84 S21       29.84R
PHILADELPHIA   PTSUNNY   38  33  82 CALM      30.52R
LOS ANGELES    MOCLDY    52  24  33 N12G21    29.85R
WASHINGTON DC  PTSUNNY   38  37  97 S5        30.46S WCI  34


USA.gov is the U.S. government's official web portal to all federal, state and local government web resources and services.